Home > Weather > Hobart > Past weeks

Flag for Australia Past Weather in Hobart, Tasmania, Australia — Yesterday and Last 2 Weeks

Now
52 °F

Partly sunny.


Feels Like: 49 °F
Forecast: 50 / 59 °F
Wind: 9 mph from North

Location: Hobart Airport

Current Time: Jul 2, 2016 at 10:27:09 AM

Latest Report: Jul 2, 2016 at 9:30 AM


Visibility: N/A

Pressure: 29.95 "Hg

Humidity: 72%

Dew Point: 43 °F

Location of HobartLocation

Past Weather in Hobart — Graph

°F

Hobart Temperature Yesterday

Maximum temperature yesterday: 55 °F (at 1:00 PM)
Minimum temperature yesterday: 37 °F (at 7:00 AM)
Average temperature yesterday: 48 °F

High & Low Weather Summary for the Past Weeks

 TemperatureHumidityPressure
High59 °F (Jun 28, 1:00 PM)100% (Jun 17, 9:00 PM)30.24 "Hg (Jun 17, 9:00 PM)
Low34 °F (Jun 25, 6:30 AM)47% (Jun 27, 2:30 PM)29.03 "Hg (Jun 22, 1:00 AM)
Average48 °F75%29.75 "Hg
* Reported Jun 17 9:00 AM — Jul 2 9:00 AM, Hobart, Weather by CustomWeather, © 2016

Note: Actual official high and low records may vary slightly from our data, if they occured in-between our weather recording intervals... More about our weather records

Advertising

Hobart Weather History for the Previous 24 Hours

Scroll right to see more
 ConditionsComfort  
Time TempWeatherWind HumidityBarometerVisibility
9:00 AM
Sat, Jul 2
52 °FPartly sunny.13 mph72%29.92 "HgN/A
8:30 AM52 °FPartly sunny.12 mph72%29.92 "HgN/A
8:00 AM52 °FPartly sunny.12 mph72%29.92 "HgN/A
7:30 AM52 °FPartly sunny.13 mph72%29.92 "HgN/A
7:00 AM52 °FPartly sunny.15 mph67%29.92 "HgN/A
6:30 AM52 °FPassing clouds.14 mph67%29.89 "HgN/A
6:00 AM50 °FPassing clouds.12 mph71%29.89 "HgN/A
5:30 AM50 °FPassing clouds.9 mph71%29.89 "HgN/A
5:00 AM48 °FPassing clouds.8 mph76%29.89 "HgN/A
4:00 AM46 °FPassing clouds.6 mph82%29.89 "HgN/A
3:00 AM48 °FPartly cloudy.6 mph76%29.89 "HgN/A
2:30 AM50 °FPassing clouds.8 mph71%29.92 "HgN/A
2:00 AM45 °FPassing clouds.6 mph87%29.92 "HgN/A
1:30 AM46 °FPassing clouds.5 mph82%29.92 "HgN/A
1:00 AM48 °FPassing clouds.6 mph76%29.92 "HgN/A
12:30 AM46 °FPassing clouds.5 mph82%29.92 "HgN/A
12:00 AM48 °FPassing clouds.7 mph76%29.92 "HgN/A
11:30 PM
Fri, Jul 1
48 °FPassing clouds.7 mph76%29.92 "HgN/A
11:00 PM48 °FPassing clouds.9 mph76%29.92 "HgN/A
10:30 PM48 °FPassing clouds.7 mph76%29.92 "HgN/A
10:00 PM48 °FPassing clouds.8 mph76%29.92 "HgN/A
9:30 PM45 °FPassing clouds.7 mph81%29.92 "HgN/A
9:00 PM48 °FPassing clouds.10 mph71%29.92 "HgN/A
8:30 PM48 °FPassing clouds.8 mph76%29.92 "HgN/A
8:00 PM52 °FPassing clouds.8 mph62%29.92 "HgN/A
7:30 PM52 °FPassing clouds.9 mph62%29.92 "HgN/A
7:00 PM52 °FPassing clouds.10 mph62%29.89 "HgN/A
6:00 PM50 °FPassing clouds.9 mph67%29.89 "HgN/A
5:00 PM52 °FPassing clouds.10 mph62%29.89 "HgN/A
4:30 PM52 °FPartly cloudy.12 mph58%29.89 "HgN/A
4:00 PM52 °FPartly cloudy.9 mph58%29.89 "HgN/A
3:30 PM52 °FBroken clouds.8 mph62%29.86 "HgN/A
3:00 PM54 °FBroken clouds.12 mph51%29.86 "HgN/A
2:30 PM54 °FBroken clouds.9 mph54%29.86 "HgN/A
2:00 PM55 °FBroken clouds.14 mph47%29.86 "HgN/A
1:30 PM55 °FBroken clouds.17 mph47%29.86 "HgN/A
1:00 PM55 °FPartly sunny.18 mph51%29.86 "HgN/A
12:30 PM54 °FBroken clouds.16 mph54%29.86 "HgN/A
12:00 PM54 °FBroken clouds.15 mph58%29.89 "HgN/A
11:30 AM52 °FBroken clouds.14 mph67%29.89 "HgN/A
11:00 AM52 °FBroken clouds.13 mph67%29.89 "HgN/A
10:30 AM50 °FScattered clouds.10 mph71%29.89 "HgN/A
10:00 AM48 °FPartly sunny.8 mph76%29.86 "HgN/A
Weather by CustomWeather, © 2016

See weather overviewHow to use our weather pages